Time,TemperatureF,DewpointF,PressureIn,WindDirection,WindDirectionDegrees,WindSpeedMPH,WindSpeedGustMPH,Humidity,HourlyPrecipIn,Conditions,Clouds,dailyrainin,SoftwareType,DateUTC
2013-10-31 00:01:00,32.0,32.0,30.09,West,270,4.0,13.0,100,0.00,,,0.00,Weather View 32 v70,2013-10-31 06:01:00,
2013-10-31 00:06:00,32.0,32.0,30.09,West,270,6.0,13.0,100,0.00,,,0.00,Weather View 32 v70,2013-10-31 06:06:00,
2013-10-31 00:11:00,32.0,32.0,30.09,West,270,5.0,13.0,100,0.00,,,0.00,Weather View 32 v70,2013-10-31 06:11:00,
2013-10-31 00:16:00,32.0,32.0,30.09,West,270,6.0,13.0,100,0.00,,,0.00,Weather View 32 v70,2013-10-31 06:16:00,
2013-10-31 00:21:00,32.0,32.0,30.09,West,270,4.0,13.0,100,0.00,,,0.00,Weather View 32 v70,2013-10-31 06:21:00,
2013-10-31 00:26:00,31.0,31.0,30.10,West,270,4.0,13.0,100,0.00,,,0.00,Weather View 32 v70,2013-10-31 06:26:00,
2013-10-31 00:31:00,31.0,31.0,30.10,West,270,4.0,13.0,100,0.00,,,0.00,Weather View 32 v70,2013-10-31 06:31:00,
2013-10-31 00:36:00,31.0,31.0,30.10,West,270,7.0,10.0,100,0.00,,,0.00,Weather View 32 v70,2013-10-31 06:36:00,
2013-10-31 00:41:00,31.0,31.0,30.10,West,270,8.0,10.0,100,0.00,,,0.00,Weather View 32 v70,2013-10-31 06:41:00,
2013-10-31 00:46:00,31.0,31.0,30.10,WNW,292,4.0,10.0,100,0.00,,,0.00,Weather View 32 v70,2013-10-31 06:46:00,
2013-10-31 00:51:00,31.0,31.0,30.10,West,270,3.0,10.0,100,0.00,,,0.00,Weather View 32 v70,2013-10-31 06:51:00,
2013-10-31 00:56:00,31.0,31.0,30.10,West,270,4.0,10.0,100,0.00,,,0.00,Weather View 32 v70,2013-10-31 06:56:00,
2013-10-31 01:01:00,31.0,31.0,30.10,WNW,292,4.0,10.0,100,0.00,,,0.00,Weather View 32 v70,2013-10-31 07:01:00,
2013-10-31 01:06:00,31.0,31.0,30.10,WNW,292,6.0,10.0,100,0.00,,,0.00,Weather View 32 v70,2013-10-31 07:06:00,
2013-10-31 01:11:00,31.0,31.0,30.10,West,270,3.0,10.0,100,0.00,,,0.00,Weather View 32 v70,2013-10-31 07:11:00,
2013-10-31 01:16:00,31.0,31.0,30.10,West,270,4.0,10.0,100,0.00,,,0.00,Weather View 32 v70,2013-10-31 07:16:00,
2013-10-31 01:21:00,31.0,31.0,30.10,West,270,4.0,10.0,100,0.00,,,0.00,Weather View 32 v70,2013-10-31 07:21:00,
2013-10-31 01:26:00,31.0,31.0,30.10,West,270,5.0,10.0,100,0.00,,,0.00,Weather View 32 v70,2013-10-31 07:26:00,
2013-10-31 01:32:00,31.0,31.0,30.10,West,270,5.0,10.0,100,0.00,,,0.00,Weather View 32 v70,2013-10-31 07:32:00,
2013-10-31 01:37:00,31.0,31.0,30.11,West,270,5.0,10.0,100,0.00,,,0.00,Weather View 32 v70,2013-10-31 07:37:00,
2013-10-31 01:42:00,31.0,31.0,30.11,West,270,3.0,8.0,100,0.00,,,0.00,Weather View 32 v70,2013-10-31 07:42:00,
2013-10-31 01:46:00,31.0,31.0,30.11,West,270,4.0,8.0,100,0.00,,,0.00,Weather View 32 v70,2013-10-31 07:46:00,
2013-10-31 01:52:00,31.0,31.0,30.11,West,270,3.0,8.0,100,0.00,,,0.00,Weather View 32 v70,2013-10-31 07:52:00,
2013-10-31 01:56:00,31.0,31.0,30.11,WNW,292,3.0,8.0,100,0.00,,,0.00,Weather View 32 v70,2013-10-31 07:56:00,
2013-10-31 02:01:00,31.0,31.0,30.11,WNW,292,3.0,8.0,100,0.00,,,0.00,Weather View 32 v70,2013-10-31 08:01:00,
2013-10-31 02:06:00,31.0,31.0,30.12,West,270,3.0,8.0,100,0.00,,,0.00,Weather View 32 v70,2013-10-31 08:06:00,
2013-10-31 02:11:00,31.0,31.0,30.12,West,270,5.0,8.0,100,0.00,,,0.00,Weather View 32 v70,2013-10-31 08:11:00,
2013-10-31 02:16:00,31.0,31.0,30.11,West,270,7.0,8.0,100,0.00,,,0.00,Weather View 32 v70,2013-10-31 08:16:00,
2013-10-31 02:21:00,31.0,31.0,30.11,WNW,292,6.0,8.0,100,0.00,,,0.00,Weather View 32 v70,2013-10-31 08:21:00,
2013-10-31 02:26:00,31.0,31.0,30.12,NW,315,7.0,8.0,100,0.00,,,0.00,Weather View 32 v70,2013-10-31 08:26:00,
2013-10-31 02:31:00,31.0,31.0,30.12,WNW,292,2.0,8.0,100,0.00,,,0.00,Weather View 32 v70,2013-10-31 08:31:00,
2013-10-31 02:36:00,31.0,31.0,30.12,West,270,4.0,8.0,100,0.00,,,0.00,Weather View 32 v70,2013-10-31 08:36:00,
2013-10-31 02:41:00,31.0,31.0,30.12,West,270,3.0,8.0,100,0.00,,,0.00,Weather View 32 v70,2013-10-31 08:41:00,
2013-10-31 02:46:00,31.0,31.0,30.12,West,270,2.0,8.0,100,0.00,,,0.00,Weather View 32 v70,2013-10-31 08:46:00,
2013-10-31 02:51:00,31.0,31.0,30.12,NW,315,3.0,8.0,100,0.00,,,0.00,Weather View 32 v70,2013-10-31 08:51:00,
2013-10-31 02:56:00,31.0,31.0,30.12,WNW,292,4.0,8.0,100,0.00,,,0.00,Weather View 32 v70,2013-10-31 08:56:00,
2013-10-31 03:01:00,31.0,31.0,30.12,WNW,292,4.0,8.0,100,0.00,,,0.00,Weather View 32 v70,2013-10-31 09:01:00,
2013-10-31 03:06:00,31.0,31.0,30.12,NW,315,2.0,8.0,100,0.00,,,0.00,Weather View 32 v70,2013-10-31 09:06:00,
2013-10-31 03:11:00,31.0,31.0,30.12,NW,315,3.0,8.0,100,0.00,,,0.00,Weather View 32 v70,2013-10-31 09:11:00,
2013-10-31 03:16:00,30.0,30.0,30.12,NW,315,4.0,8.0,100,0.00,,,0.00,Weather View 32 v70,2013-10-31 09:16:00,
2013-10-31 03:21:00,30.0,30.0,30.12,NW,315,2.0,8.0,100,0.00,,,0.00,Weather View 32 v70,2013-10-31 09:21:00,
2013-10-31 03:26:00,30.0,30.0,30.12,NW,315,3.0,8.0,100,0.00,,,0.00,Weather View 32 v70,2013-10-31 09:26:00,
2013-10-31 03:31:00,30.0,30.0,30.12,NW,315,2.0,8.0,100,0.00,,,0.00,Weather View 32 v70,2013-10-31 09:31:00,
2013-10-31 03:36:00,30.0,30.0,30.12,NW,315,2.0,8.0,100,0.00,,,0.00,Weather View 32 v70,2013-10-31 09:36:00,
2013-10-31 03:41:00,30.0,30.0,30.12,NW,315,0.0,8.0,100,0.00,,,0.00,Weather View 32 v70,2013-10-31 09:41:00,
2013-10-31 03:46:00,30.0,30.0,30.12,NW,315,3.0,8.0,100,0.00,,,0.00,Weather View 32 v70,2013-10-31 09:46:00,
2013-10-31 03:51:00,30.0,30.0,30.12,West,270,2.0,8.0,100,0.00,,,0.00,Weather View 32 v70,2013-10-31 09:51:00,
2013-10-31 03:56:00,30.0,30.0,30.12,SW,225,3.0,7.0,100,0.00,,,0.00,Weather View 32 v70,2013-10-31 09:56:00,
2013-10-31 04:01:00,30.0,30.0,30.12,WSW,247,4.0,7.0,100,0.00,,,0.00,Weather View 32 v70,2013-10-31 10:01:00,
2013-10-31 04:06:00,30.0,30.0,30.12,WSW,247,5.0,7.0,100,0.00,,,0.00,Weather View 32 v70,2013-10-31 10:06:00,
2013-10-31 04:11:00,30.0,30.0,30.12,WSW,247,1.0,7.0,100,0.00,,,0.00,Weather View 32 v70,2013-10-31 10:11:00,
2013-10-31 04:16:00,30.0,30.0,30.12,SSW,202,0.0,7.0,100,0.00,,,0.00,Weather View 32 v70,2013-10-31 10:16:00,
2013-10-31 04:21:00,30.0,30.0,30.12,WSW,247,1.0,7.0,100,0.00,,,0.00,Weather View 32 v70,2013-10-31 10:21:00,
2013-10-31 04:26:00,30.0,30.0,30.12,WSW,247,2.0,7.0,100,0.00,,,0.00,Weather View 32 v70,2013-10-31 10:26:00,
2013-10-31 04:31:00,30.0,30.0,30.12,WSW,247,2.0,7.0,100,0.00,,,0.00,Weather View 32 v70,2013-10-31 10:31:00,
2013-10-31 04:36:00,30.0,30.0,30.13,WSW,247,0.0,7.0,100,0.00,,,0.00,Weather View 32 v70,2013-10-31 10:36:00,
2013-10-31 04:41:00,29.0,29.0,30.13,WSW,247,3.0,7.0,100,0.00,,,0.00,Weather View 32 v70,2013-10-31 10:41:00,
2013-10-31 04:46:00,29.0,29.0,30.13,WSW,247,1.0,7.0,100,0.00,,,0.00,Weather View 32 v70,2013-10-31 10:46:00,
2013-10-31 04:51:00,29.0,29.0,30.13,WSW,247,3.0,7.0,100,0.00,,,0.00,Weather View 32 v70,2013-10-31 10:51:00,
2013-10-31 04:56:00,29.0,29.0,30.13,WSW,247,2.0,7.0,100,0.00,,,0.00,Weather View 32 v70,2013-10-31 10:56:00,
2013-10-31 05:01:00,29.0,29.0,30.13,WSW,247,0.0,7.0,100,0.00,,,0.00,Weather View 32 v70,2013-10-31 11:01:00,
2013-10-31 05:06:00,30.0,30.0,30.13,WSW,247,0.0,7.0,100,0.00,,,0.00,Weather View 32 v70,2013-10-31 11:06:00,
2013-10-31 05:11:00,30.0,30.0,30.13,WSW,247,0.0,7.0,100,0.00,,,0.00,Weather View 32 v70,2013-10-31 11:11:00,
2013-10-31 05:16:00,29.0,29.0,30.13,WSW,247,0.0,5.0,100,0.00,,,0.00,Weather View 32 v70,2013-10-31 11:16:00,
2013-10-31 05:21:00,29.0,29.0,30.13,WSW,247,3.0,5.0,100,0.00,,,0.00,Weather View 32 v70,2013-10-31 11:21:00,
2013-10-31 05:26:00,29.0,29.0,30.13,WSW,247,0.0,5.0,100,0.00,,,0.00,Weather View 32 v70,2013-10-31 11:26:00,
2013-10-31 05:31:00,30.0,30.0,30.13,NW,315,4.0,5.0,100,0.00,,,0.00,Weather View 32 v70,2013-10-31 11:31:00,
2013-10-31 05:36:00,29.0,29.0,30.13,NW,315,4.0,6.0,100,0.00,,,0.00,Weather View 32 v70,2013-10-31 11:36:00,
2013-10-31 05:41:00,29.0,29.0,30.13,NW,315,3.0,6.0,100,0.00,,,0.00,Weather View 32 v70,2013-10-31 11:41:00,
2013-10-31 05:46:00,29.0,29.0,30.14,NW,315,3.0,6.0,100,0.00,,,0.00,Weather View 32 v70,2013-10-31 11:46:00,
2013-10-31 05:51:00,29.0,29.0,30.14,NW,315,1.0,6.0,100,0.00,,,0.00,Weather View 32 v70,2013-10-31 11:51:00,
2013-10-31 05:56:00,29.0,29.0,30.14,NW,315,3.0,6.0,100,0.00,,,0.00,Weather View 32 v70,2013-10-31 11:56:00,
2013-10-31 06:01:00,29.0,29.0,30.14,NW,315,3.0,6.0,100,0.00,,,0.00,Weather View 32 v70,2013-10-31 12:01:00,
2013-10-31 06:06:00,29.0,29.0,30.14,NW,315,2.0,6.0,100,0.00,,,0.00,Weather View 32 v70,2013-10-31 12:06:00,
2013-10-31 06:11:00,29.0,29.0,30.14,NW,315,4.0,6.0,100,0.00,,,0.00,Weather View 32 v70,2013-10-31 12:11:00,
2013-10-31 06:16:00,29.0,29.0,30.14,NW,315,3.0,6.0,100,0.00,,,0.00,Weather View 32 v70,2013-10-31 12:16:00,
2013-10-31 06:21:00,29.0,29.0,30.14,NW,315,3.0,6.0,100,0.00,,,0.00,Weather View 32 v70,2013-10-31 12:21:00,
2013-10-31 06:26:00,29.0,29.0,30.15,NW,315,3.0,6.0,100,0.00,,,0.00,Weather View 32 v70,2013-10-31 12:26:00,
2013-10-31 06:31:00,29.0,29.0,30.15,NW,315,1.0,6.0,100,0.00,,,0.00,Weather View 32 v70,2013-10-31 12:31:00,
2013-10-31 06:36:00,29.0,29.0,30.15,NW,315,5.0,5.0,100,0.00,,,0.00,Weather View 32 v70,2013-10-31 12:36:00,
2013-10-31 06:41:00,29.0,29.0,30.15,NW,315,4.0,5.0,100,0.00,,,0.00,Weather View 32 v70,2013-10-31 12:41:00,
2013-10-31 06:46:00,29.0,29.0,30.15,NW,315,4.0,5.0,100,0.00,,,0.00,Weather View 32 v70,2013-10-31 12:46:00,
2013-10-31 06:51:00,29.0,29.0,30.15,NW,315,4.0,5.0,100,0.00,,,0.00,Weather View 32 v70,2013-10-31 12:51:00,
2013-10-31 06:56:00,29.0,29.0,30.15,NW,315,4.0,5.0,100,0.00,,,0.00,Weather View 32 v70,2013-10-31 12:56:00,
2013-10-31 07:01:00,29.0,29.0,30.15,NW,315,4.0,6.0,100,0.00,,,0.00,Weather View 32 v70,2013-10-31 13:01:00,
2013-10-31 07:06:00,29.0,29.0,30.16,NW,315,3.0,6.0,100,0.00,,,0.00,Weather View 32 v70,2013-10-31 13:06:00,
2013-10-31 07:11:00,29.0,29.0,30.16,NW,315,4.0,7.0,100,0.00,,,0.00,Weather View 32 v70,2013-10-31 13:11:00,
2013-10-31 07:16:00,29.0,29.0,30.16,NW,315,4.0,7.0,100,0.00,,,0.00,Weather View 32 v70,2013-10-31 13:16:00,
2013-10-31 07:21:00,29.0,29.0,30.16,NW,315,3.0,7.0,100,0.00,,,0.00,Weather View 32 v70,2013-10-31 13:21:00,
2013-10-31 07:26:00,29.0,29.0,30.16,NW,315,5.0,7.0,100,0.00,,,0.00,Weather View 32 v70,2013-10-31 13:26:00,
2013-10-31 07:31:00,29.0,29.0,30.16,NW,315,3.0,7.0,100,0.00,,,0.00,Weather View 32 v70,2013-10-31 13:31:00,
2013-10-31 07:36:00,29.0,29.0,30.16,West,270,3.0,7.0,100,0.00,,,0.00,Weather View 32 v70,2013-10-31 13:36:00,
2013-10-31 07:41:00,29.0,29.0,30.16,West,270,3.0,7.0,100,0.00,,,0.00,Weather View 32 v70,2013-10-31 13:41:00,
2013-10-31 07:46:00,29.0,29.0,30.16,West,270,1.0,7.0,100,0.00,,,0.00,Weather View 32 v70,2013-10-31 13:46:00,
2013-10-31 07:51:00,29.0,29.0,30.16,West,270,3.0,7.0,100,0.00,,,0.00,Weather View 32 v70,2013-10-31 13:51:00,
2013-10-31 07:56:00,30.0,30.0,30.16,West,270,3.0,7.0,100,0.00,,,0.00,Weather View 32 v70,2013-10-31 13:56:00,
2013-10-31 08:01:00,30.0,30.0,30.16,West,270,4.0,7.0,100,0.00,,,0.00,Weather View 32 v70,2013-10-31 14:01:00,
2013-10-31 08:06:00,30.0,30.0,30.17,West,270,6.0,7.0,100,0.00,,,0.00,Weather View 32 v70,2013-10-31 14:06:00,
2013-10-31 08:11:00,31.0,31.0,30.17,West,270,5.0,7.0,100,0.00,,,0.00,Weather View 32 v70,2013-10-31 14:11:00,
2013-10-31 08:16:00,31.0,31.0,30.18,West,270,3.0,7.0,100,0.00,,,0.00,Weather View 32 v70,2013-10-31 14:16:00,
2013-10-31 08:21:00,32.0,32.0,30.18,West,270,5.0,7.0,100,0.00,,,0.00,Weather View 32 v70,2013-10-31 14:21:00,
2013-10-31 08:26:00,33.0,33.0,30.18,West,270,5.0,8.0,100,0.00,,,0.00,Weather View 32 v70,2013-10-31 14:26:00,
2013-10-31 08:31:00,33.0,33.0,30.18,West,270,5.0,8.0,100,0.00,,,0.00,Weather View 32 v70,2013-10-31 14:31:00,
2013-10-31 08:36:00,34.0,34.0,30.18,WNW,292,3.0,8.0,100,0.00,,,0.00,Weather View 32 v70,2013-10-31 14:36:00,
2013-10-31 08:41:00,34.0,34.0,30.18,WNW,292,5.0,10.0,100,0.00,,,0.00,Weather View 32 v70,2013-10-31 14:41:00,
2013-10-31 08:46:00,34.0,34.0,30.18,WSW,247,4.0,10.0,100,0.00,,,0.00,Weather View 32 v70,2013-10-31 14:46:00,
2013-10-31 08:51:00,35.0,35.0,30.18,West,270,5.0,10.0,100,0.00,,,0.00,Weather View 32 v70,2013-10-31 14:51:00,
2013-10-31 08:56:00,35.0,35.0,30.18,West,270,6.0,10.0,100,0.01,,,0.01,Weather View 32 v70,2013-10-31 14:56:00,
2013-10-31 09:01:00,35.0,35.0,30.18,West,270,7.0,10.0,100,0.01,,,0.01,Weather View 32 v70,2013-10-31 15:01:00,
2013-10-31 09:06:00,36.0,36.0,30.18,West,270,4.0,10.0,100,0.01,,,0.01,Weather View 32 v70,2013-10-31 15:06:00,
2013-10-31 09:11:00,36.0,36.0,30.18,WSW,247,4.0,10.0,100,0.01,,,0.01,Weather View 32 v70,2013-10-31 15:11:00,
2013-10-31 09:16:00,37.0,37.0,30.18,SW,225,4.0,10.0,100,0.01,,,0.01,Weather View 32 v70,2013-10-31 15:16:00,
2013-10-31 09:21:00,37.0,37.0,30.18,SW,225,0.0,10.0,100,0.01,,,0.01,Weather View 32 v70,2013-10-31 15:21:00,
2013-10-31 09:26:00,37.0,37.0,30.17,West,270,6.0,10.0,100,0.01,,,0.01,Weather View 32 v70,2013-10-31 15:26:00,
2013-10-31 09:31:00,38.0,38.0,30.17,West,270,7.0,10.0,100,0.01,,,0.01,Weather View 32 v70,2013-10-31 15:31:00,
2013-10-31 09:36:00,38.0,38.0,30.18,WSW,247,5.0,10.0,100,0.01,,,0.01,Weather View 32 v70,2013-10-31 15:36:00,
2013-10-31 09:41:00,38.0,38.0,30.18,WSW,247,6.0,10.0,100,0.01,,,0.01,Weather View 32 v70,2013-10-31 15:41:00,
2013-10-31 09:46:00,38.0,38.0,30.18,SW,225,7.0,10.0,100,0.01,,,0.01,Weather View 32 v70,2013-10-31 15:46:00,
2013-10-31 09:51:00,39.0,39.0,30.18,SW,225,5.0,10.0,100,0.01,,,0.01,Weather View 32 v70,2013-10-31 15:51:00,
2013-10-31 09:56:00,39.0,39.0,30.17,West,270,6.0,11.0,100,0.00,,,0.01,Weather View 32 v70,2013-10-31 15:56:00,
2013-10-31 10:01:00,39.0,39.0,30.17,West,270,3.0,11.0,100,0.00,,,0.01,Weather View 32 v70,2013-10-31 16:01:00,
2013-10-31 10:06:00,39.0,39.0,30.18,WNW,292,6.0,11.0,100,0.00,,,0.01,Weather View 32 v70,2013-10-31 16:06:00,
2013-10-31 10:11:00,39.0,39.0,30.18,WNW,292,5.0,11.0,100,0.00,,,0.01,Weather View 32 v70,2013-10-31 16:11:00,
2013-10-31 10:16:00,40.0,40.0,30.18,WSW,247,7.0,11.0,100,0.00,,,0.01,Weather View 32 v70,2013-10-31 16:16:00,
2013-10-31 10:21:00,40.0,40.0,30.18,West,270,6.0,11.0,100,0.00,,,0.01,Weather View 32 v70,2013-10-31 16:21:00,
2013-10-31 10:26:00,41.0,41.0,30.18,West,270,2.0,11.0,100,0.00,,,0.01,Weather View 32 v70,2013-10-31 16:26:00,
2013-10-31 10:31:00,41.0,41.0,30.18,West,270,5.0,13.0,100,0.00,,,0.01,Weather View 32 v70,2013-10-31 16:31:00,
2013-10-31 10:36:00,42.0,41.5,30.18,West,270,4.0,13.0,98,0.00,,,0.01,Weather View 32 v70,2013-10-31 16:36:00,
2013-10-31 10:41:00,42.0,40.9,30.18,West,270,4.0,13.0,96,0.00,,,0.01,Weather View 32 v70,2013-10-31 16:41:00,
2013-10-31 10:46:00,42.0,39.6,30.18,West,270,10.0,13.0,91,0.00,,,0.01,Weather View 32 v70,2013-10-31 16:46:00,
2013-10-31 10:51:00,43.0,40.0,30.18,NW,315,8.0,13.0,89,0.00,,,0.01,Weather View 32 v70,2013-10-31 16:51:00,
2013-10-31 10:56:00,43.0,39.1,30.18,SW,225,1.0,13.0,86,0.00,,,0.01,Weather View 32 v70,2013-10-31 16:56:00,
2013-10-31 11:01:00,43.0,36.9,30.18,WNW,292,10.0,13.0,79,0.00,,,0.01,Weather View 32 v70,2013-10-31 17:01:00,
2013-10-31 11:06:00,43.0,35.3,30.18,WSW,247,12.0,14.0,74,0.00,,,0.01,Weather View 32 v70,2013-10-31 17:06:00,
2013-10-31 11:11:00,43.0,35.3,30.18,North,360,5.0,14.0,74,0.00,,,0.01,Weather View 32 v70,2013-10-31 17:11:00,
2013-10-31 11:16:00,43.0,34.9,30.18,West,270,9.0,14.0,73,0.00,,,0.01,Weather View 32 v70,2013-10-31 17:16:00,
2013-10-31 11:21:00,43.0,34.2,30.18,West,270,5.0,15.0,71,0.00,,,0.01,Weather View 32 v70,2013-10-31 17:21:00,
2013-10-31 11:26:00,44.0,33.7,30.18,West,270,6.0,16.0,67,0.00,,,0.01,Weather View 32 v70,2013-10-31 17:26:00,
2013-10-31 11:31:00,44.0,33.7,30.18,West,270,10.0,16.0,67,0.00,,,0.01,Weather View 32 v70,2013-10-31 17:31:00,
2013-10-31 11:36:00,44.0,33.4,30.18,West,270,8.0,16.0,66,0.00,,,0.01,Weather View 32 v70,2013-10-31 17:36:00,
2013-10-31 11:41:00,44.0,33.4,30.18,SW,225,7.0,16.0,66,0.00,,,0.01,Weather View 32 v70,2013-10-31 17:41:00,
2013-10-31 11:46:00,44.0,32.6,30.18,West,270,10.0,16.0,64,0.00,,,0.01,Weather View 32 v70,2013-10-31 17:46:00,
2013-10-31 11:51:00,44.0,32.6,30.18,SW,225,6.0,17.0,64,0.00,,,0.01,Weather View 32 v70,2013-10-31 17:51:00,
2013-10-31 11:56:00,45.0,33.9,30.17,West,270,6.0,17.0,65,0.00,,,0.01,Weather View 32 v70,2013-10-31 17:56:00,
2013-10-31 12:01:00,45.0,33.5,30.17,West,270,7.0,17.0,64,0.00,,,0.01,Weather View 32 v70,2013-10-31 18:01:00,
2013-10-31 12:06:00,45.0,32.7,30.17,WNW,292,5.0,17.0,62,0.00,,,0.01,Weather View 32 v70,2013-10-31 18:06:00,
2013-10-31 12:11:00,45.0,31.1,30.17,West,270,11.0,17.0,58,0.00,,,0.01,Weather View 32 v70,2013-10-31 18:11:00,
2013-10-31 12:16:00,46.0,32.0,30.16,West,270,9.0,17.0,58,0.00,,,0.01,Weather View 32 v70,2013-10-31 18:16:00,
2013-10-31 12:21:00,46.0,32.0,30.16,WSW,247,12.0,18.0,58,0.00,,,0.01,Weather View 32 v70,2013-10-31 18:21:00,
2013-10-31 12:26:00,45.0,29.8,30.16,NW,315,12.0,18.0,55,0.00,,,0.01,Weather View 32 v70,2013-10-31 18:26:00,
2013-10-31 12:31:00,45.0,30.7,30.16,WSW,247,10.0,18.0,57,0.00,,,0.01,Weather View 32 v70,2013-10-31 18:31:00,
2013-10-31 12:36:00,45.0,30.7,30.16,West,270,10.0,18.0,57,0.00,,,0.01,Weather View 32 v70,2013-10-31 18:36:00,
2013-10-31 12:41:00,45.0,30.7,30.16,SW,225,10.0,18.0,57,0.00,,,0.01,Weather View 32 v70,2013-10-31 18:41:00,
2013-10-31 12:46:00,46.0,31.6,30.15,West,270,8.0,18.0,57,0.00,,,0.01,Weather View 32 v70,2013-10-31 18:46:00,
2013-10-31 12:51:00,46.0,30.7,30.15,NW,315,6.0,18.0,55,0.00,,,0.01,Weather View 32 v70,2013-10-31 18:51:00,
2013-10-31 12:56:00,46.0,30.7,30.14,WNW,292,10.0,18.0,55,0.00,,,0.01,Weather View 32 v70,2013-10-31 18:56:00,
2013-10-31 13:01:00,46.0,30.3,30.14,West,270,8.0,18.0,54,0.00,,,0.01,Weather View 32 v70,2013-10-31 19:01:00,
2013-10-31 13:06:00,46.0,29.3,30.14,West,270,11.0,20.0,52,0.00,,,0.01,Weather View 32 v70,2013-10-31 19:06:00,
2013-10-31 13:11:00,46.0,29.8,30.14,West,270,6.0,20.0,53,0.00,,,0.01,Weather View 32 v70,2013-10-31 19:11:00,
2013-10-31 13:16:00,46.0,29.3,30.14,West,270,15.0,20.0,52,0.00,,,0.01,Weather View 32 v70,2013-10-31 19:16:00,
2013-10-31 13:21:00,46.0,29.8,30.14,West,270,17.0,20.0,53,0.00,,,0.01,Weather View 32 v70,2013-10-31 19:21:00,
2013-10-31 13:26:00,46.0,29.8,30.13,West,270,12.0,22.0,53,0.00,,,0.01,Weather View 32 v70,2013-10-31 19:26:00,
2013-10-31 13:31:00,46.0,28.9,30.13,West,270,13.0,22.0,51,0.00,,,0.01,Weather View 32 v70,2013-10-31 19:31:00,
2013-10-31 13:36:00,47.0,29.3,30.13,West,270,7.0,22.0,50,0.00,,,0.01,Weather View 32 v70,2013-10-31 19:36:00,
2013-10-31 13:41:00,47.0,30.7,30.13,WNW,292,7.0,22.0,53,0.00,,,0.01,Weather View 32 v70,2013-10-31 19:41:00,
2013-10-31 13:46:00,47.0,29.3,30.12,WSW,247,11.0,22.0,50,0.00,,,0.01,Weather View 32 v70,2013-10-31 19:46:00,
2013-10-31 13:51:00,47.0,30.3,30.12,NW,315,14.0,22.0,52,0.00,,,0.01,Weather View 32 v70,2013-10-31 19:51:00,
2013-10-31 13:53:00,47.0,29.3,30.12,West,270,7.0,22.0,50,0.00,,,0.01,Weather View 32 v70,2013-10-31 19:53:00,
2013-10-31 13:58:00,47.0,29.3,30.12,WNW,292,11.0,22.0,50,0.00,,,0.01,Weather View 32 v70,2013-10-31 19:58:00,
2013-10-31 14:03:00,47.0,28.3,30.12,West,270,15.0,22.0,48,0.00,,,0.01,Weather View 32 v70,2013-10-31 20:03:00,
2013-10-31 14:08:00,48.0,28.2,30.12,NW,315,3.0,22.0,46,0.00,,,0.01,Weather View 32 v70,2013-10-31 20:08:00,
2013-10-31 14:13:00,48.0,27.6,30.12,NW,315,4.0,22.0,45,0.00,,,0.01,Weather View 32 v70,2013-10-31 20:13:00,
2013-10-31 14:18:00,48.0,27.6,30.11,NW,315,12.0,22.0,45,0.00,,,0.01,Weather View 32 v70,2013-10-31 20:18:00,
2013-10-31 14:23:00,48.0,27.6,30.11,WNW,292,8.0,23.0,45,0.00,,,0.01,Weather View 32 v70,2013-10-31 20:23:00,
2013-10-31 14:28:00,47.0,26.7,30.11,West,270,11.0,23.0,45,0.00,,,0.01,Weather View 32 v70,2013-10-31 20:28:00,
2013-10-31 14:33:00,47.0,27.3,30.11,West,270,13.0,23.0,46,0.00,,,0.01,Weather View 32 v70,2013-10-31 20:33:00,
2013-10-31 14:38:00,46.0,24.7,30.11,NW,315,5.0,23.0,43,0.00,,,0.01,Weather View 32 v70,2013-10-31 20:38:00,
2013-10-31 14:43:00,47.0,25.6,30.11,NW,315,7.0,23.0,43,0.00,,,0.01,Weather View 32 v70,2013-10-31 20:43:00,
2013-10-31 14:48:00,46.0,24.2,30.11,NW,315,9.0,23.0,42,0.00,,,0.01,Weather View 32 v70,2013-10-31 20:48:00,
2013-10-31 14:53:00,47.0,25.1,30.11,WNW,292,14.0,23.0,42,0.00,,,0.01,Weather View 32 v70,2013-10-31 20:53:00,
2013-10-31 14:58:00,47.0,25.1,30.12,WNW,292,21.0,24.0,42,0.00,,,0.01,Weather View 32 v70,2013-10-31 20:58:00,
2013-10-31 15:03:00,47.0,25.1,30.12,WSW,247,14.0,24.0,42,0.00,,,0.01,Weather View 32 v70,2013-10-31 21:03:00,
2013-10-31 15:08:00,47.0,25.6,30.12,West,270,10.0,24.0,43,0.00,,,0.01,Weather View 32 v70,2013-10-31 21:08:00,
2013-10-31 15:13:00,46.0,24.2,30.12,West,270,11.0,32.0,42,0.00,,,0.01,Weather View 32 v70,2013-10-31 21:13:00,
2013-10-31 15:18:00,46.0,24.2,30.12,West,270,13.0,32.0,42,0.00,,,0.01,Weather View 32 v70,2013-10-31 21:18:00,
2013-10-31 15:23:00,46.0,24.2,30.12,West,270,22.0,32.0,42,0.00,,,0.01,Weather View 32 v70,2013-10-31 21:23:00,
2013-10-31 15:28:00,46.0,24.7,30.12,WNW,292,15.0,32.0,43,0.00,,,0.01,Weather View 32 v70,2013-10-31 21:28:00,
2013-10-31 15:33:00,46.0,25.3,30.12,WNW,292,14.0,32.0,44,0.00,,,0.01,Weather View 32 v70,2013-10-31 21:33:00,
2013-10-31 15:38:00,46.0,25.8,30.12,WNW,292,15.0,32.0,45,0.00,,,0.01,Weather View 32 v70,2013-10-31 21:38:00,
2013-10-31 15:43:00,46.0,24.7,30.12,West,270,12.0,32.0,43,0.00,,,0.01,Weather View 32 v70,2013-10-31 21:43:00,
2013-10-31 15:48:00,46.0,26.9,30.11,WNW,292,16.0,32.0,47,0.00,,,0.01,Weather View 32 v70,2013-10-31 21:48:00,
2013-10-31 15:53:00,46.0,26.3,30.11,West,270,11.0,32.0,46,0.00,,,0.01,Weather View 32 v70,2013-10-31 21:53:00,
2013-10-31 15:58:00,46.0,26.3,30.12,NW,315,14.0,32.0,46,0.00,,,0.01,Weather View 32 v70,2013-10-31 21:58:00,
2013-10-31 16:03:00,46.0,26.9,30.12,West,270,7.0,32.0,47,0.00,,,0.01,Weather View 32 v70,2013-10-31 22:03:00,
2013-10-31 16:08:00,46.0,27.4,30.12,WNW,292,13.0,32.0,48,0.00,,,0.01,Weather View 32 v70,2013-10-31 22:08:00,
2013-10-31 16:13:00,46.0,27.9,30.12,West,270,16.0,26.0,49,0.00,,,0.01,Weather View 32 v70,2013-10-31 22:13:00,
2013-10-31 16:18:00,46.0,27.4,30.12,NW,315,11.0,26.0,48,0.00,,,0.01,Weather View 32 v70,2013-10-31 22:18:00,
2013-10-31 16:23:00,46.0,27.4,30.12,West,270,5.0,26.0,48,0.00,,,0.01,Weather View 32 v70,2013-10-31 22:23:00,
2013-10-31 16:28:00,46.0,27.9,30.12,WNW,292,10.0,24.0,49,0.00,,,0.01,Weather View 32 v70,2013-10-31 22:28:00,
2013-10-31 16:33:00,46.0,27.9,30.12,NW,315,10.0,24.0,49,0.00,,,0.01,Weather View 32 v70,2013-10-31 22:33:00,
2013-10-31 16:38:00,46.0,28.4,30.12,NW,315,11.0,24.0,50,0.00,,,0.01,Weather View 32 v70,2013-10-31 22:38:00,
2013-10-31 16:43:00,45.0,27.5,30.12,North,360,4.0,24.0,50,0.00,,,0.01,Weather View 32 v70,2013-10-31 22:43:00,
2013-10-31 16:48:00,45.0,27.5,30.12,WNW,292,7.0,23.0,50,0.00,,,0.01,Weather View 32 v70,2013-10-31 22:48:00,
2013-10-31 16:53:00,45.0,27.9,30.12,WNW,292,8.0,20.0,51,0.00,,,0.01,Weather View 32 v70,2013-10-31 22:53:00,
2013-10-31 16:58:00,45.0,27.5,30.12,WNW,292,5.0,23.0,50,0.00,,,0.01,Weather View 32 v70,2013-10-31 22:58:00,
2013-10-31 17:03:00,45.0,27.5,30.12,West,270,11.0,23.0,50,0.00,,,0.01,Weather View 32 v70,2013-10-31 23:03:00,
2013-10-31 17:08:00,45.0,26.5,30.12,NW,315,9.0,23.0,48,0.00,,,0.01,Weather View 32 v70,2013-10-31 23:08:00,
2013-10-31 17:13:00,46.0,27.4,30.12,West,270,9.0,23.0,48,0.00,,,0.01,Weather View 32 v70,2013-10-31 23:13:00,
2013-10-31 17:18:00,46.0,27.9,30.12,NW,315,8.0,23.0,49,0.00,,,0.01,Weather View 32 v70,2013-10-31 23:18:00,
2013-10-31 17:23:00,46.0,27.9,30.12,West,270,7.0,23.0,49,0.00,,,0.01,Weather View 32 v70,2013-10-31 23:23:00,
2013-10-31 17:28:00,45.0,27.9,30.12,WNW,292,5.0,23.0,51,0.00,,,0.01,Weather View 32 v70,2013-10-31 23:28:00,
2013-10-31 17:33:00,45.0,27.9,30.12,West,270,7.0,23.0,51,0.00,,,0.01,Weather View 32 v70,2013-10-31 23:33:00,
2013-10-31 17:38:00,45.0,27.5,30.12,WNW,292,8.0,23.0,50,0.00,,,0.01,Weather View 32 v70,2013-10-31 23:38:00,
2013-10-31 17:43:00,45.0,27.9,30.12,West,270,4.0,23.0,51,0.00,,,0.01,Weather View 32 v70,2013-10-31 23:43:00,
2013-10-31 17:48:00,45.0,28.4,30.12,SW,225,8.0,23.0,52,0.00,,,0.01,Weather View 32 v70,2013-10-31 23:48:00,
2013-10-31 17:53:00,44.0,27.9,30.12,WNW,292,5.0,23.0,53,0.00,,,0.01,Weather View 32 v70,2013-10-31 23:53:00,
2013-10-31 17:58:00,44.0,27.9,30.12,WSW,247,8.0,20.0,53,0.00,,,0.01,Weather View 32 v70,2013-10-31 23:58:00,
2013-10-31 18:03:00,44.0,27.9,30.12,West,270,5.0,20.0,53,0.00,,,0.01,Weather View 32 v70,2013-11-01 00:03:00,
2013-10-31 18:08:00,43.0,27.5,30.11,West,270,6.0,19.0,54,0.00,,,0.01,Weather View 32 v70,2013-11-01 00:08:00,
2013-10-31 18:13:00,43.0,27.9,30.11,WSW,247,8.0,19.0,55,0.00,,,0.01,Weather View 32 v70,2013-11-01 00:13:00,
2013-10-31 18:18:00,43.0,27.9,30.11,West,270,8.0,19.0,55,0.00,,,0.01,Weather View 32 v70,2013-11-01 00:18:00,
2013-10-31 18:23:00,43.0,28.4,30.11,West,270,10.0,19.0,56,0.00,,,0.01,Weather View 32 v70,2013-11-01 00:23:00,
2013-10-31 18:28:00,42.0,27.4,30.11,WNW,292,5.0,19.0,56,0.00,,,0.01,Weather View 32 v70,2013-11-01 00:28:00,
2013-10-31 18:33:00,42.0,27.4,30.11,NW,315,7.0,19.0,56,0.00,,,0.01,Weather View 32 v70,2013-11-01 00:33:00,
2013-10-31 18:38:00,42.0,27.4,30.11,WNW,292,7.0,16.0,56,0.00,,,0.01,Weather View 32 v70,2013-11-01 00:38:00,
2013-10-31 18:43:00,42.0,27.4,30.11,NW,315,5.0,15.0,56,0.00,,,0.01,Weather View 32 v70,2013-11-01 00:43:00,
2013-10-31 18:48:00,42.0,27.4,30.12,West,270,4.0,15.0,56,0.00,,,0.01,Weather View 32 v70,2013-11-01 00:48:00,
2013-10-31 18:53:00,42.0,27.4,30.12,West,270,6.0,15.0,56,0.00,,,0.01,Weather View 32 v70,2013-11-01 00:53:00,
2013-10-31 18:58:00,41.0,26.9,30.12,West,270,9.0,15.0,57,0.00,,,0.01,Weather View 32 v70,2013-11-01 00:58:00,
2013-10-31 19:03:00,41.0,26.9,30.12,West,270,7.0,15.0,57,0.00,,,0.01,Weather View 32 v70,2013-11-01 01:03:00,
2013-10-31 19:08:00,41.0,27.3,30.12,WNW,292,5.0,15.0,58,0.00,,,0.01,Weather View 32 v70,2013-11-01 01:08:00,
2013-10-31 19:13:00,41.0,27.8,30.12,West,270,9.0,15.0,59,0.00,,,0.01,Weather View 32 v70,2013-11-01 01:13:00,
2013-10-31 19:18:00,41.0,27.8,30.12,WNW,292,7.0,15.0,59,0.00,,,0.01,Weather View 32 v70,2013-11-01 01:18:00,
2013-10-31 19:23:00,41.0,27.8,30.12,NW,315,8.0,15.0,59,0.00,,,0.01,Weather View 32 v70,2013-11-01 01:23:00,
2013-10-31 19:28:00,40.0,27.2,30.12,West,270,5.0,15.0,60,0.00,,,0.01,Weather View 32 v70,2013-11-01 01:28:00,
2013-10-31 19:33:00,40.0,27.2,30.12,WNW,292,5.0,15.0,60,0.00,,,0.01,Weather View 32 v70,2013-11-01 01:33:00,
2013-10-31 19:38:00,40.0,27.6,30.13,NW,315,10.0,15.0,61,0.00,,,0.01,Weather View 32 v70,2013-11-01 01:38:00,
2013-10-31 19:43:00,40.0,27.6,30.13,NW,315,6.0,13.0,61,0.00,,,0.01,Weather View 32 v70,2013-11-01 01:43:00,
2013-10-31 19:48:00,40.0,27.6,30.13,West,270,7.0,13.0,61,0.00,,,0.01,Weather View 32 v70,2013-11-01 01:48:00,
2013-10-31 19:53:00,39.0,27.1,30.13,West,270,3.0,13.0,62,0.00,,,0.01,Weather View 32 v70,2013-11-01 01:53:00,
2013-10-31 19:58:00,39.0,27.5,30.13,West,270,7.0,13.0,63,0.00,,,0.01,Weather View 32 v70,2013-11-01 01:58:00,
2013-10-31 20:03:00,39.0,27.5,30.13,WNW,292,7.0,13.0,63,0.00,,,0.01,Weather View 32 v70,2013-11-01 02:03:00,
2013-10-31 20:08:00,39.0,27.5,30.13,WNW,292,8.0,13.0,63,0.00,,,0.01,Weather View 32 v70,2013-11-01 02:08:00,
2013-10-31 20:13:00,39.0,26.7,30.13,WNW,292,7.0,13.0,61,0.00,,,0.01,Weather View 32 v70,2013-11-01 02:13:00,
2013-10-31 20:18:00,39.0,26.3,30.13,NW,315,10.0,14.0,60,0.00,,,0.01,Weather View 32 v70,2013-11-01 02:18:00,
2013-10-31 20:23:00,39.0,25.9,30.13,NW,315,10.0,14.0,59,0.00,,,0.01,Weather View 32 v70,2013-11-01 02:23:00,
2013-10-31 20:28:00,39.0,25.0,30.13,West,270,7.0,17.0,57,0.00,,,0.01,Weather View 32 v70,2013-11-01 02:28:00,
2013-10-31 20:33:00,40.0,25.5,30.13,NW,315,10.0,17.0,56,0.00,,,0.01,Weather View 32 v70,2013-11-01 02:33:00,
2013-10-31 20:38:00,40.0,25.1,30.14,NW,315,10.0,17.0,55,0.00,,,0.01,Weather View 32 v70,2013-11-01 02:38:00,
2013-10-31 20:43:00,40.0,24.7,30.14,NW,315,12.0,17.0,54,0.00,,,0.01,Weather View 32 v70,2013-11-01 02:43:00,
2013-10-31 20:48:00,40.0,24.2,30.14,NW,315,13.0,17.0,53,0.00,,,0.01,Weather View 32 v70,2013-11-01 02:48:00,
2013-10-31 20:53:00,40.0,24.7,30.14,NW,315,6.0,17.0,54,0.00,,,0.01,Weather View 32 v70,2013-11-01 02:53:00,
2013-10-31 20:58:00,40.0,25.1,30.14,NW,315,8.0,17.0,55,0.00,,,0.01,Weather View 32 v70,2013-11-01 02:58:00,
2013-10-31 21:03:00,40.0,25.5,30.14,NW,315,9.0,17.0,56,0.00,,,0.01,Weather View 32 v70,2013-11-01 03:03:00,
2013-10-31 21:08:00,40.0,25.5,30.14,NW,315,11.0,17.0,56,0.00,,,0.01,Weather View 32 v70,2013-11-01 03:08:00,
2013-10-31 21:13:00,40.0,25.5,30.14,NW,315,5.0,17.0,56,0.00,,,0.01,Weather View 32 v70,2013-11-01 03:13:00,
2013-10-31 21:18:00,40.0,26.0,30.14,NW,315,4.0,17.0,57,0.00,,,0.01,Weather View 32 v70,2013-11-01 03:18:00,
2013-10-31 21:23:00,39.0,25.5,30.14,NW,315,6.0,17.0,58,0.00,,,0.01,Weather View 32 v70,2013-11-01 03:23:00,
2013-10-31 21:28:00,39.0,25.5,30.14,NW,315,4.0,17.0,58,0.00,,,0.01,Weather View 32 v70,2013-11-01 03:28:00,
2013-10-31 21:33:00,39.0,25.0,30.14,NW,315,8.0,17.0,57,0.00,,,0.01,Weather View 32 v70,2013-11-01 03:33:00,
2013-10-31 21:38:00,39.0,24.6,30.15,NW,315,6.0,17.0,56,0.00,,,0.01,Weather View 32 v70,2013-11-01 03:38:00,
2013-10-31 21:43:00,39.0,25.0,30.15,NW,315,5.0,16.0,57,0.00,,,0.01,Weather View 32 v70,2013-11-01 03:43:00,
2013-10-31 21:48:00,39.0,25.9,30.15,NW,315,5.0,16.0,59,0.00,,,0.01,Weather View 32 v70,2013-11-01 03:48:00,
2013-10-31 21:53:00,39.0,25.9,30.15,NW,315,5.0,16.0,59,0.00,,,0.01,Weather View 32 v70,2013-11-01 03:53:00,
2013-10-31 21:58:00,39.0,25.9,30.15,NNW,337,5.0,16.0,59,0.00,,,0.01,Weather View 32 v70,2013-11-01 03:58:00,
2013-10-31 22:01:00,38.0,24.5,30.15,NW,315,10.0,16.0,58,0.00,,,0.01,Weather View 32 v70,2013-11-01 04:01:00,
2013-10-31 22:06:00,38.0,24.5,30.15,NNW,337,6.0,11.0,58,0.00,,,0.01,Weather View 32 v70,2013-11-01 04:06:00,
2013-10-31 22:11:00,38.0,24.5,30.15,NW,315,6.0,11.0,58,0.00,,,0.01,Weather View 32 v70,2013-11-01 04:11:00,
2013-10-31 22:16:00,38.0,24.1,30.16,NW,315,8.0,11.0,57,0.00,,,0.01,Weather View 32 v70,2013-11-01 04:16:00,
2013-10-31 22:21:00,39.0,25.0,30.16,NW,315,4.0,11.0,57,0.00,,,0.01,Weather View 32 v70,2013-11-01 04:21:00,
2013-10-31 22:26:00,39.0,25.0,30.16,NW,315,4.0,11.0,57,0.00,,,0.01,Weather View 32 v70,2013-11-01 04:26:00,
2013-10-31 22:31:00,39.0,25.0,30.16,North,360,8.0,11.0,57,0.00,,,0.01,Weather View 32 v70,2013-11-01 04:31:00,
2013-10-31 22:36:00,39.0,25.0,30.16,NNW,337,8.0,11.0,57,0.00,,,0.01,Weather View 32 v70,2013-11-01 04:36:00,
2013-10-31 22:41:00,39.0,25.0,30.16,NW,315,4.0,11.0,57,0.00,,,0.01,Weather View 32 v70,2013-11-01 04:41:00,
2013-10-31 22:46:00,39.0,25.0,30.16,North,360,8.0,11.0,57,0.00,,,0.01,Weather View 32 v70,2013-11-01 04:46:00,
2013-10-31 22:51:00,39.0,25.0,30.16,North,360,5.0,11.0,57,0.00,,,0.01,Weather View 32 v70,2013-11-01 04:51:00,
2013-10-31 22:56:00,39.0,25.0,30.16,North,360,0.0,11.0,57,0.00,,,0.01,Weather View 32 v70,2013-11-01 04:56:00,
2013-10-31 23:01:00,38.0,24.9,30.16,NW,315,0.0,11.0,59,0.00,,,0.01,Weather View 32 v70,2013-11-01 05:01:00,
2013-10-31 23:06:00,38.0,25.7,30.16,NW,315,1.0,11.0,61,0.00,,,0.01,Weather View 32 v70,2013-11-01 05:06:00,
2013-10-31 23:11:00,38.0,25.7,30.16,WNW,292,0.0,11.0,61,0.00,,,0.01,Weather View 32 v70,2013-11-01 05:11:00,
2013-10-31 23:16:00,37.0,25.6,30.16,SSW,202,4.0,11.0,63,0.00,,,0.01,Weather View 32 v70,2013-11-01 05:16:00,
2013-10-31 23:21:00,37.0,25.9,30.16,WNW,292,2.0,11.0,64,0.00,,,0.01,Weather View 32 v70,2013-11-01 05:21:00,
2013-10-31 23:26:00,37.0,25.9,30.17,West,270,0.0,11.0,64,0.00,,,0.01,Weather View 32 v70,2013-11-01 05:26:00,
2013-10-31 23:31:00,36.0,25.4,30.17,West,270,0.0,11.0,65,0.00,,,0.01,Weather View 32 v70,2013-11-01 05:31:00,
2013-10-31 23:36:00,36.0,25.7,30.17,West,270,0.0,11.0,66,0.00,,,0.01,Weather View 32 v70,2013-11-01 05:36:00,
2013-10-31 23:41:00,36.0,26.1,30.17,West,270,3.0,8.0,67,0.06,,,0.01,Weather View 32 v70,2013-11-01 05:41:00,
2013-10-31 23:45:00,36.0,26.1,30.17,WSW,247,4.0,8.0,67,0.00,,,0.01,Weather View 32 v70,2013-11-01 05:45:00,
2013-10-31 23:50:00,35.0,25.9,30.17,SW,225,4.0,8.0,69,0.00,,,0.01,Weather View 32 v70,2013-11-01 05:50:00,
2013-10-31 23:55:00,35.0,26.5,30.17,SW,225,5.0,8.0,71,0.00,,,0.01,Weather View 32 v70,2013-11-01 05:55:00,